Total_Precipitation_Accumulation
2.92 2.52 3.44 2.64 1.71 1.33 1.15 0.93 1.17 0.90 0.55 0.43 0.57 0.53 0.51 0.52 0.64 0.62 0.71 0.91 0.84 0.70 0.63 0.57 0.80 1.04 0.85 0.78 0.62 0.73 0.58 0.51 0.29 0.28 0.37 0.44 0.64 0.78 0.72 0.66 0.65 0.60 0.81
1.22 1.51 2.35 2.06 1.50 0.84 1.02 0.86 0.89 1.08 0.62 0.46 0.47 0.51 0.61 0.60 0.59 0.66 0.77 0.83 0.96 1.24 0.90 0.67 0.42 0.65 0.71 0.50 0.59 0.61 0.50 0.40 0.46 0.56 0.59 0.53 0.53 0.72 0.95 1.13 0.90 0.64 0.65
0.34 0.81 1.29 1.72 1.08 0.50 0.64 0.59 0.76 0.69 0.46 0.39 0.46 0.45 0.47 0.46 0.64 0.72 0.74 0.74 0.87 1.14 0.90 0.53 0.31 0.40 0.47 0.44 0.65 0.68 0.45 0.56 1.07 1.43 1.97 2.40 1.12 0.50 0.65 0.83 0.78 0.90 0.61
0.05 0.26 0.41 1.11 0.92 0.57 0.46 0.51 0.41 0.39 0.38 0.39 0.46 0.41 0.43 0.61 0.74 0.52 0.54 0.60 0.76 0.49 0.58 0.78 0.67 0.24 0.27 0.49 0.52 0.68 0.50 0.61 1.08 1.66 2.47 3.05 1.32 0.38 0.43 0.59 0.63 0.67 0.59
0.22 0.13 0.20 0.53 0.48 0.42 0.37 0.44 0.31 0.29 0.31 0.34 0.28 0.31 0.39 0.49 0.40 0.40 0.52 0.42 0.52 0.45 0.46 0.49 0.70 0.57 0.46 0.78 0.79 0.92 0.84 1.07 1.07 1.25 1.08 0.86 0.62 0.48 0.52 0.34 0.38 0.38 0.40
0.41 0.12 0.29 0.44 0.29 0.29 0.33 0.47 0.33 0.16 0.29 0.42 0.44 0.47 0.65 0.65 0.53 0.53 0.52 0.59 0.74 0.68 0.68 0.59 0.60 0.85 0.95 0.74 0.79 0.84 1.09 1.47 1.38 1.04 1.53 1.74 0.75 0.52 0.56 0.37 0.38 0.33 0.31
0.41 0.09 0.13 0.66 0.49 0.40 0.29 0.32 0.39 0.36 0.29 0.31 0.43 0.60 0.69 0.51 0.61 0.56 0.35 0.49 0.92 0.89 0.98 0.81 0.66 0.56 0.76 0.73 0.60 0.77 0.90 1.31 1.40 2.31 2.43 1.38 0.78 0.49 0.54 0.50 0.49 0.35 0.24
0.27 0.16 0.13 0.45 0.62 0.42 0.30 0.21 0.31 0.31 0.21 0.24 0.40 0.36 0.37 0.47 0.55 0.41 0.37 0.46 0.58 0.74 0.94 1.12 0.91 0.64 0.63 0.64 0.68 0.84 1.13 1.18 1.12 2.06 1.57 0.86 0.50 0.49 0.45 0.67 0.67 0.41 0.38
0.53 0.46 0.47 0.36 0.34 0.43 0.31 0.28 0.31 0.22 0.18 0.27 0.41 0.43 0.39 0.48 0.49 0.41 0.54 0.64 0.55 0.74 1.20 1.24 0.93 0.77 0.63 0.69 0.87 0.98 0.94 1.07 1.39 2.22 1.66 0.79 0.48 0.60 0.72 0.93 0.85 0.82 0.82
1.28 1.75 1.28 1.03 1.04 0.77 0.45 0.43 0.46 0.34 0.16 0.26 0.49 0.51 0.58 0.62 0.54 0.54 0.84 0.67 0.69 0.84 0.80 1.54 1.51 1.30 1.24 0.78 0.67 0.95 1.63 1.07 1.32 1.99 2.28 0.70 0.62 0.69 0.88 1.34 1.21 1.15 1.18
0.35 1.19 2.17 1.71 1.38 1.42 1.11 0.62 0.48 0.43 0.37 0.47 0.75 0.84 0.92 1.05 1.08 1.03 0.80 1.00 0.94 0.90 0.89 1.22 1.77 2.52 1.99 1.12 0.85 0.68 1.16 1.01 0.76 1.34 1.88 1.04 0.80 1.02 0.95 0.98 1.05 1.02 1.09
0.54 0.54 0.85 1.40 0.98 1.38 1.26 1.39 0.77 0.62 0.73 0.69 0.98 1.61 1.46 2.10 2.90 2.63 1.84 1.23 1.40 1.12 1.15 1.85 1.72 2.20 1.72 0.88 0.84 1.10 0.94 0.85 0.74 0.91 1.28 0.83 0.89 0.97 1.13 0.95 0.93 1.02 1.17
0.43 0.43 0.64 1.03 1.28 0.94 1.14 1.70 1.51 1.14 1.18 1.70 1.61 2.61 2.34 2.77 3.76 3.52 3.22 2.19 2.10 2.28 2.07 2.00 1.25 0.84 1.08 1.37 1.01 0.66 0.90 0.47 0.63 0.74 0.83 0.72 0.94 1.17 1.11 1.37 1.37 1.48 1.68
0.56 0.55 0.63 0.91 2.22 1.38 1.58 1.77 2.35 1.80 2.70 3.26 2.22 2.62 3.12 2.78 2.94 2.82 2.30 2.80 3.03 2.72 3.14 1.78 1.45 1.10 1.01 1.19 0.89 0.67 0.36 0.37 0.41 0.81 1.08 0.95 1.24 1.82 1.91 2.46 1.76 1.50 1.49
1.14 1.08 1.47 1.04 3.03 2.62 2.52 3.20 2.39 2.30 3.05 1.92 2.00 2.28 2.63 2.09 1.95 2.12 2.58 2.19 2.18 1.79 2.40 2.29 2.32 2.00 1.50 0.91 0.77 0.78 0.86 0.65 0.45 0.66 0.56 1.25 1.41 2.25 2.34 1.87 2.17 1.72 1.62
1.29 1.09 0.59 0.49 2.23 2.69 2.33 2.45 1.76 1.80 2.18 1.46 1.25 1.49 1.64 1.60 1.44 1.77 2.06 1.29 0.75 0.99 1.17 1.71 2.42 2.52 1.68 1.12 1.01 0.86 1.17 0.87 0.57 0.85 0.48 0.95 1.79 1.81 1.83 2.34 2.75 2.28 2.67
1.48 1.27 0.56 0.73 0.97 1.52 1.66 1.41 1.49 1.48 1.33 1.36 1.14 1.31 1.23 1.47 1.76 1.85 1.21 1.17 1.38 1.97 1.91 2.22 2.86 2.27 1.50 1.03 1.04 0.75 0.83 0.91 0.78 1.03 0.78 0.70 0.80 1.25 1.82 2.52 2.94 3.13 3.30
1.42 1.66 1.23 2.52 2.45 1.61 1.27 1.42 1.41 1.24 1.35 0.99 0.80 0.79 0.94 0.92 1.19 1.25 0.97 1.17 1.69 2.73 2.38 1.55 1.38 2.33 1.52 1.40 1.31 0.94 1.08 1.17 1.05 1.25 1.19 0.88 0.73 0.60 1.28 2.56 2.49 3.09 4.37
1.31 1.26 1.28 2.21 2.12 1.26 1.01 1.46 1.28 1.41 1.86 1.49 0.94 0.79 1.02 0.87 0.95 1.50 1.08 1.49 2.74 1.58 2.23 1.71 1.57 1.73 1.34 1.11 1.18 0.94 1.07 1.03 0.74 0.86 0.92 1.55 1.97 1.34 0.69 1.38 3.12 3.51 3.73
1.12 0.64 1.15 2.28 1.72 1.31 1.39 1.42 1.39 1.50 1.43 1.29 1.33 1.22 1.50 1.24 1.17 1.27 1.53 1.41 2.27 1.70 1.87 1.97 2.27 1.97 1.49 1.60 1.57 1.53 1.47 0.88 0.75 1.12 1.05 1.80 2.32 1.36 1.14 1.63 3.27 3.23 3.73
1.56 1.35 3.20 1.74 1.43 1.38 1.31 1.35 1.12 1.02 1.11 1.04 1.14 1.78 2.35 1.55 1.65 1.62 1.98 2.05 2.32 2.02 2.63 2.71 3.09 2.68 2.15 2.63 2.99 1.54 1.21 0.71 0.73 0.95 0.85 1.28 2.28 2.08 1.59 1.82 2.56 2.24 2.56
1.53 1.81 1.86 1.60 1.24 0.99 0.61 0.45 0.48 0.56 0.73 0.85 1.25 1.59 1.68 1.56 1.83 2.00 2.00 2.45 2.50 3.13 3.45 3.02 2.68 2.78 2.82 3.45 3.33 3.14 1.25 0.69 0.42 0.78 1.10 1.60 2.38 2.37 1.72 2.33 2.51 2.61 3.16
1.36 2.52 3.95 1.83 0.59 0.61 0.50 0.50 0.63 0.60 0.68 0.85 1.13 0.88 0.94 1.16 1.72 1.99 2.15 2.03 2.07 2.01 1.91 2.65 3.06 3.10 3.26 3.72 3.27 3.33 2.03 1.29 1.07 0.76 1.15 1.53 1.46 1.78 2.12 2.39 2.95 3.99 3.65
1.07 2.18 3.31 1.11 0.45 0.55 1.08 1.12 1.25 0.96 0.76 0.63 0.60 0.53 0.38 0.61 0.96 1.32 1.90 2.15 1.91 1.87 2.05 2.28 3.19 3.82 4.81 4.06 3.52 2.62 2.43 2.30 2.80 1.93 2.20 2.37 2.01 2.01 2.89 3.39 2.02 2.44 2.71
1.49 1.18 0.84 0.38 0.61 0.84 0.96 0.77 1.08 1.04 0.60 0.47 0.53 0.61 0.47 0.42 0.53 0.67 1.21 1.69 1.65 1.74 2.32 2.73 3.52 4.16 4.04 4.69 4.17 3.38 3.10 3.12 3.48 3.09 2.26 1.97 1.56 1.18 1.20 1.77 1.91 1.93 2.33
0.81 0.80 0.28 0.30 0.51 0.50 0.51 0.67 0.99 0.96 1.10 0.91 0.64 0.42 0.37 0.34 0.39 0.54 0.77 0.84 0.97 1.36 1.95 2.32 3.87 4.49 4.84 4.27 3.77 3.24 2.85 2.88 3.08 3.29 2.96 2.73 1.92 1.15 0.79 1.06 1.48 2.36 2.62